Montevideo, MN

7:05 PM CDT on April 21, 2018 (GMT -0500)
Montevideo-Chippewa County

Weather History for KMVE - February, 2014

Change the Weather History Date:

Monday, February 24, 2014

  Actual Average Record
Temperature  
Mean Temperature 5 °F -  
Max Temperature 10 °F 31 °F 57 °F (1976)
Min Temperature 0 °F 11 °F -19 °F (1965)
Degree Days  
Heating Degree Days 60    
Moisture  
Dew Point -1 °F    
Average Humidity 78    
Maximum Humidity 85    
Minimum Humidity 67    
Precipitation  
Precipitation 0.00 in - - ()
Sea Level Pressure  
Sea Level Pressure 30.36 in    
Wind  
Wind Speed 8 mph (North)    
Max Wind Speed 14 mph    
Max Gust Speed 17 mph    
Visibility 9 miles    
Events Snow    
Averages and records for this station are not official NWS values.
T = Trace of Precipitation, MM = Missing Value Source: NWS Daily Summary

Daily Weather History Graph

Daily Weather History Graph

Search for Another Location

Airport or City:

Astronomy

Feb. 24, 2014 Rise Set
Actual Time 7:09 AM CST 6:03 PM CST
Civil Twilight 6:39 AM CST 6:33 PM CST
Nautical Twilight 6:05 AM CST 7:07 PM CST
Astronomical Twilight 5:31 AM CST 7:41 PM CST
Moon 3:16 AM CST (2/24) 12:57 PM CST (2/24)
Length of Visible Light 11h 53m
Length of Day
10h 54m
Waning Crescent, 28% of the Moon is Illuminated
Feb 24
Waning Crescent
Mar 1
New
Mar 8
First Quarter
Mar 16
Full
Mar 23
Last Quarter

Hourly Weather History & Observations

Time (CST) Temp. Windchill Dew Point Humidity Pressure Visibility Wind Dir Wind Speed Gust Speed Precip Events Conditions
12:14 AM 6.8 °F -7.8 °F 1.4 °F 79% 30.34 in 10.0 mi North 10.4 mph 16.1 mph N/A   Clear
12:34 AM 6.8 °F -8.6 °F -0.4 °F 72% 30.34 in 10.0 mi North 11.5 mph - N/A   Clear
12:54 AM 5.0 °F -6.9 °F -0.4 °F 78% 30.34 in 10.0 mi NNW 6.9 mph - N/A   Clear
1:14 AM 5.0 °F -6.9 °F -0.4 °F 78% 30.35 in 10.0 mi NNW 6.9 mph - N/A   Clear
1:34 AM 5.0 °F -5.6 °F -0.4 °F 78% 30.34 in 10.0 mi NNW 5.8 mph - N/A   Clear
1:54 AM 3.2 °F -6.2 °F -0.4 °F 85% 30.35 in 10.0 mi NW 4.6 mph - N/A   Clear
2:14 AM 3.2 °F -9.1 °F -2.2 °F 78% 30.35 in 10.0 mi NNW 6.9 mph - N/A   Clear
2:34 AM 3.2 °F -7.8 °F -2.2 °F 78% 30.35 in 10.0 mi NNW 5.8 mph - N/A   Clear
2:54 AM 3.2 °F -10.3 °F -2.2 °F 78% 30.35 in 10.0 mi North 8.1 mph - N/A   Clear
3:14 AM 3.2 °F -10.3 °F -2.2 °F 78% 30.35 in 10.0 mi North 8.1 mph - N/A   Clear
3:34 AM 1.4 °F -9.9 °F -2.2 °F 85% 30.34 in 10.0 mi North 5.8 mph - N/A   Clear
3:54 AM 1.4 °F -9.9 °F -2.2 °F 85% 30.34 in 10.0 mi North 5.8 mph - N/A   Clear
4:14 AM 1.4 °F -12.5 °F -4.0 °F 78% 30.33 in 10.0 mi North 8.1 mph - N/A   Clear
4:33 AM 1.4 °F -13.5 °F -2.2 °F 85% 30.33 in 10.0 mi North 9.2 mph - N/A   Clear
4:54 AM 1.4 °F -11.3 °F -2.2 °F 85% 30.33 in 10.0 mi North 6.9 mph - N/A   Clear
5:14 AM -0.4 °F -8.3 °F -4.0 °F 85% 30.34 in 10.0 mi NNW 3.5 mph - N/A   Clear
5:33 AM -0.4 °F -10.4 °F -5.8 °F 78% 30.35 in 10.0 mi NNW 4.6 mph - N/A   Clear
5:54 AM -0.4 °F -10.4 °F -5.8 °F 78% 30.35 in 10.0 mi NNW 4.6 mph - N/A   Clear
6:14 AM -0.4 °F -12.0 °F -5.8 °F 78% 30.35 in 10.0 mi NNW 5.8 mph - N/A   Clear
6:34 AM -0.4 °F -10.4 °F -5.8 °F 78% 30.35 in 10.0 mi NNW 4.6 mph - N/A   Clear
6:54 AM -0.4 °F -10.4 °F -5.8 °F 78% 30.35 in 10.0 mi North 4.6 mph - N/A   Clear
7:14 AM -0.4 °F -10.4 °F -5.8 °F 78% 30.36 in 10.0 mi NNW 4.6 mph - N/A   Clear
7:34 AM -0.4 °F -12.0 °F -4.0 °F 85% 30.36 in 10.0 mi NNW 5.8 mph - N/A   Clear
7:54 AM -0.4 °F -13.4 °F -4.0 °F 85% 30.36 in 10.0 mi North 6.9 mph - N/A   Clear
8:14 AM 1.4 °F -12.5 °F -4.0 °F 78% 30.36 in 10.0 mi North 8.1 mph - N/A   Clear
8:34 AM 3.2 °F -11.3 °F -2.2 °F 78% 30.36 in 10.0 mi North 9.2 mph - N/A   Clear
8:54 AM 3.2 °F -11.3 °F -4.0 °F 72% 30.37 in 10.0 mi North 9.2 mph - N/A   Clear
9:14 AM 3.2 °F -9.1 °F -4.0 °F 72% 30.37 in 10.0 mi North 6.9 mph - N/A   Clear
9:34 AM 3.2 °F -7.8 °F -2.2 °F 78% 30.37 in 10.0 mi North 5.8 mph - N/A   Clear
9:54 AM 5.0 °F -6.9 °F -0.4 °F 78% 30.37 in 10.0 mi North 6.9 mph - N/A   Clear
10:14 AM 5.0 °F -6.9 °F -2.2 °F 72% 30.37 in 10.0 mi North 6.9 mph - N/A   Clear
10:34 AM 6.8 °F -4.8 °F -0.4 °F 72% 30.37 in 10.0 mi North 6.9 mph - N/A   Clear
10:54 AM 6.8 °F -4.8 °F -0.4 °F 72% 30.37 in 10.0 mi NNE 6.9 mph - N/A   Scattered Clouds
11:14 AM 6.8 °F -2.0 °F -2.2 °F 67% 30.37 in 10.0 mi North 4.6 mph - N/A   Clear
11:34 AM 6.8 °F -4.8 °F -2.2 °F 67% 30.37 in 10.0 mi North 6.9 mph - N/A   Clear
11:54 AM 6.8 °F -4.8 °F -0.4 °F 72% 30.38 in 10.0 mi NNW 6.9 mph - N/A   Clear
12:14 PM 8.6 °F -2.6 °F -0.4 °F 67% 30.37 in 10.0 mi North 6.9 mph - N/A   Clear
12:34 PM 8.6 °F -1.3 °F -0.4 °F 67% 30.36 in 10.0 mi NNE 5.8 mph - N/A   Clear
12:54 PM 8.6 °F -2.6 °F -0.4 °F 67% 30.35 in 10.0 mi NNE 6.9 mph - N/A   Clear
1:14 PM 10.4 °F -1.5 °F 1.4 °F 67% 30.35 in 10.0 mi NNE 8.1 mph - N/A   Clear
1:34 PM 8.6 °F -2.6 °F -0.4 °F 67% 30.34 in 10.0 mi NNE 6.9 mph - N/A   Clear
1:54 PM 8.6 °F -3.7 °F 1.4 °F 73% 30.34 in 10.0 mi North 8.1 mph - N/A   Clear
2:14 PM 8.6 °F -2.6 °F 1.4 °F 73% 30.34 in 10.0 mi North 6.9 mph - N/A   Scattered Clouds
2:34 PM 8.6 °F -1.3 °F 1.4 °F 73% 30.33 in 10.0 mi North 5.8 mph - N/A   Mostly Cloudy
2:54 PM 10.4 °F 0.8 °F 1.4 °F 67% 30.33 in 10.0 mi North 5.8 mph - N/A   Mostly Cloudy
3:14 PM 8.6 °F -2.6 °F 1.4 °F 73% 30.32 in 10.0 mi NNE 6.9 mph - N/A   Mostly Cloudy
3:34 PM 8.6 °F -4.7 °F 1.4 °F 73% 30.32 in 10.0 mi NNE 9.2 mph - N/A   Overcast
3:54 PM 8.6 °F -4.7 °F 1.4 °F 73% 30.32 in 10.0 mi North 9.2 mph - N/A   Mostly Cloudy
4:14 PM 8.6 °F -5.5 °F 1.4 °F 73% 30.32 in 7.0 mi North 10.4 mph - N/A   Scattered Clouds
4:34 PM 8.6 °F -3.7 °F 3.2 °F 79% 30.33 in 5.0 mi North 8.1 mph - N/A   Haze
4:54 PM 8.6 °F -7.0 °F 3.2 °F 79% 30.33 in 4.0 mi NNE 12.7 mph - N/A Snow Light Snow
5:14 PM 8.6 °F -5.5 °F 3.2 °F 79% 30.34 in 1.8 mi North 10.4 mph - N/A Snow Light Snow
5:34 PM 8.6 °F -4.7 °F 3.2 °F 79% 30.35 in 2.5 mi North 9.2 mph - N/A Snow Light Snow
5:54 PM 6.8 °F -9.3 °F 3.2 °F 85% 30.35 in 2.0 mi North 12.7 mph - N/A Snow Light Snow
6:14 PM 6.8 °F -7.8 °F 3.2 °F 85% 30.36 in 2.5 mi North 10.4 mph - N/A Snow Light Snow
6:34 PM 6.8 °F -8.6 °F 3.2 °F 85% 30.36 in 3.0 mi North 11.5 mph - N/A Snow Light Snow
6:54 PM 6.8 °F -8.6 °F 1.4 °F 79% 30.37 in 3.0 mi North 11.5 mph 17.3 mph N/A Snow Light Snow
7:14 PM 6.8 °F -7.8 °F 1.4 °F 79% 30.37 in 3.0 mi North 10.4 mph - N/A Snow Light Snow
7:34 PM 6.8 °F -5.9 °F 1.4 °F 79% 30.37 in 3.0 mi North 8.1 mph - N/A Snow Light Snow
7:54 PM 6.8 °F -4.8 °F 1.4 °F 79% 30.37 in 4.0 mi North 6.9 mph - N/A Snow Light Snow
8:14 PM 5.0 °F -10.0 °F 1.4 °F 85% 30.37 in 4.0 mi North 10.4 mph - N/A Snow Light Snow
8:34 PM 5.0 °F -9.1 °F 1.4 °F 85% 30.38 in 7.0 mi North 9.2 mph - N/A Snow Light Snow
8:54 PM 3.2 °F -9.1 °F -0.4 °F 85% 30.38 in 5.0 mi North 6.9 mph - N/A Snow Light Snow
9:14 PM 3.2 °F -10.3 °F -0.4 °F 85% 30.39 in 7.0 mi North 8.1 mph - N/A Snow Light Snow
9:34 PM 3.2 °F -10.3 °F -0.4 °F 85% 30.39 in 7.0 mi North 8.1 mph - N/A Snow Light Snow
9:54 PM 3.2 °F -10.3 °F -0.4 °F 85% 30.40 in 10.0 mi North 8.1 mph - N/A Snow Light Snow
10:14 PM 1.4 °F -11.3 °F -2.2 °F 85% 30.40 in 10.0 mi North 6.9 mph - N/A   Overcast
10:34 PM 1.4 °F -12.5 °F -2.2 °F 85% 30.40 in 10.0 mi NNW 8.1 mph - N/A   Mostly Cloudy
10:54 PM 1.4 °F -14.5 °F -2.2 °F 85% 30.40 in 10.0 mi North 10.4 mph - N/A   Scattered Clouds
11:14 PM 1.4 °F -16.9 °F -2.2 °F 85% 30.40 in 10.0 mi North 13.8 mph 17.3 mph N/A   Scattered Clouds
11:34 PM 1.4 °F -13.5 °F -4.0 °F 78% 30.40 in 10.0 mi North 9.2 mph - N/A   Clear
11:54 PM -0.4 °F -15.7 °F -4.0 °F 85% 30.39 in 10.0 mi North 9.2 mph - N/A   Clear